Location: Newark
(43.0000°N, 1.6781°W)
Time: 05:36:59
(UTC+00:00)

X-37B - Pass Details

Date: 09 December 2021
Orbit: 334 x 337 km, 45.0° (Epoch: 11 January)

Event Time Altitude Azimuth Distance (km) Brightness Sun altitude
Rises 17:51:37 0° 249° (WSW) 2,098 6.3 -14.0°
Reaches altitude 10° 17:53:37 10° 247° (WSW) 1,263 4.6 -14.4°
Maximum altitude 17:56:26 77° 162° (SSE) 346 0.2 -14.9°
Enters shadow 17:57:14 42° 84° (E) 487 0.6 -15.0°
